Location: Bennemühlen
(52.5740°N, 9.7135°E)
Time: 02:24:06
(UTC+00:00)

Vanguard 2 Rocket - Pass Details

Date: 18 February 2026
Orbit: 553 x 3286 km, 32.9° (Epoch: 12 March)

Event Time Altitude Azimuth Distance (km) Brightness Sun altitude
Rises 11:21:54 0° 220° (SW) 7,253 12.2 25.8°
Reaches altitude 10° 11:28:04 10° 210° (SSW) 6,142 12.2 25.9°
Maximum altitude 11:42:01 27° 163° (SSE) 4,228 12.1 25.9°
Drops below altitude 10° 11:52:35 10° 113° (ESE) 4,610 10.8 25.8°
Sets 11:56:20 0° 101° (ESE) 5,223 10.9 25.7°
